Regional Weather Roundup
Issued by NWS Goodland, KS

Home | Current Version | Previous Version | Graphics & Text | Print | Product List | Glossary On
Versions: 1 2 3 4 5 6 7 8 9 10 11 12 13 14 15 16 17 18 19 20 21 22 23 24 25 26 27 28 29 30 31 32 33 34 35 36 37 38 39 40 41 42 43 44 45 46 47 48 49 50
000
ASUS43 KGLD 010659
RWRGLD

GOODLAND FORECAST AREA HOURLY WEATHER ROUNDUP
NATIONAL WEATHER SERVICE GOODLAND KS
100 AM MDT SAT AUG 01 2015

...OFFICIAL OBSERVATIONS...

CITY           SKY/WX    TMP DP  RH WIND       PRES   REMARKS
GOODLAND KS    CLEAR     71  59  65 SW12      30.19F
HILL CITY KS   CLEAR     73  65  75 S3        30.12S
IMPERIAL NEB   CLEAR     71  58  63 SW6       30.14F
MCCOOK NEB     PTCLDY    72  62  71 E8        30.13F
AKRON CO       CLEAR     69  55  60 S12       30.22S
BURLINGTON CO  CLEAR     63  57  81 SW8       30.23S
LIMON CO       CLEAR     56  53  90 CALM      30.29F
$$

...UNOFFICIAL OBSERVATIONS...

CITY           SKY/WX    TMP DP  RH WIND       PRES   REMARKS
COLBY KS       CLEAR     70  63  78 SW7       30.18S
NORTON KS      CLEAR     68  59  73 S5        30.12
SHARON SPRINGS   N/A     66  61  83 N9          N/A
KIT CARSON CO    N/A     63  56  78 MISG        N/A
YUMA CO          N/A     68  58  69 S7          N/A
$$


USA.gov is the U.S. government's official web portal to all federal, state and local government web resources and services.